STARLINK-1324 (45574 NORAD) Tracking and Keplerian Element Data

This shows tracking and keplerian element data for the satellite.

Feedback or suggestion? Click here.




ElementValue
Catalog45574
NameSTARLINK-1324
Epoch Orbit177
Epoch Day193.91667824
Epoch Year2020
RAAN5.7992
Inclination52.9978
Eccentricity0.0002173
Argument of Perigee359.5755
Mean Anonmoly110.992
Mean Motion15.62749323
Decay Rate0.00061073
L11 45574U 20025AV 20193.91667824 .00061073 00000-0 66786-3 0 9995
L22 45574 52.9978 5.7992 0002173 359.5755 110.9920 15.62749323 1770

Live tracking and technical data element details for STARLINK-1324 (NORAD 45574). STARLINK-1324 can be tracked NOW for your location showing map with azimuth and elevation plus other details from your city location.

Track the satellite on the map from your city or location and see movement details for azimuth, elevation, latitude, longitude, range, height, and movement on the map or in text.







IsCatalogInMostPopularTable: catalog: 45574, numindb: 22
Update: records affected: 1



GetName: 45574 STARLINK-1324

Hit Count: updated at: Mon, 13 Jul 2020 04:57:44 GMT